FW3129 Weather Reports


Display with metric or nautical units.
time (UTC)temp
F
wind
direction
speed
MPH
gust
MPH
rain 1hr
in
rain 24hr
in
rain mn
in
humidity
%
barometer
mb
20260905110032 81 0 0.0 2.0 0.00 1.26 0.00 92 1016.1
20260905104533 81 308 0.0 4.0 0.00 1.26 0.00 92 1016.0
20260905103035 81 0 0.0 1.0 0.00 1.26 0.00 91 1015.8
20260905101535 82 0 0.0 2.0 0.00 1.26 0.00 90 1015.8
20260905100041 83 0 0.0 1.0 0.00 1.26 0.00 87 1015.6
20260905094533 83 141 0.0 2.0 0.00 1.26 0.00 86 1015.5
20260905093033 84 0 0.0 3.0 0.00 1.26 0.00 86 1015.4
20260905091535 84 127 1.0 3.0 0.00 1.26 0.00 86 1015.3
20260905090032 83 0 0.0 4.0 0.00 1.26 0.00 87 1015.4
20260905084535 83 0 0.0 3.0 0.00 1.26 0.00 87 1015.4
20260905083032 84 0 0.0 3.0 0.00 1.26 0.00 86 1015.5
20260905081534 83 140 0.0 2.0 0.00 1.26 0.00 87 1015.7
20260905080038 83 140 0.0 1.0 0.00 1.26 0.00 87 1015.8
20260905074548 83 0 0.0 1.0 0.00 1.26 0.00 87 1015.8
20260905073050 83 140 0.0 1.0 0.00 1.26 0.00 88 1015.7
20260905071533 83 0 0.0 1.0 0.00 1.26 0.00 87 1015.6
20260905070035 83 140 0.0 3.0 0.00 1.26 0.00 88 1015.8
20260905064535 83 0 0.0 2.0 0.00 1.26 0.00 88 1016.0
20260905063033 84 0 0.0 2.0 0.00 1.26 0.00 87 1016.2
20260905061531 84 149 0.0 3.0 0.00 1.26 0.00 85 1016.4
20260905060035 84 0 0.0 3.0 0.00 1.26 0.00 85 1016.6
20260905054531 84 0 0.0 3.0 0.00 1.26 0.00 85 1016.8
20260905053035 84 78 0.0 2.0 0.00 1.26 0.00 85 1016.8
20260905051534 84 78 0.0 2.0 0.00 1.26 0.00 86 1017.1
20260905050036 84 0 0.0 4.0 0.00 1.26 0.00 86 1017.1
20260905044537 84 125 0.0 2.0 0.00 1.26 0.00 86 1017.1
20260905043031 84 0 0.0 1.0 0.00 1.26 0.00 86 1017.1
20260905041533 84 129 0.0 2.0 0.00 1.26 0.00 86 1017.2
20260905040031 83 115 0.0 2.0 0.00 1.26 0.00 87 1017.3
20260905034540 83 0 0.0 0.0 0.00 1.26 1.26 87 1017.4
20260905033046 84 0 0.0 3.0 0.00 1.26 1.26 86 1017.4
20260905031533 84 0 0.0 2.0 0.00 1.26 1.26 86 1017.5
20260905030034 83 0 0.0 1.0 0.00 1.26 1.26 88 1017.7
20260905024533 83 0 0.0 1.0 0.00 1.26 1.26 89 1017.8
20260905023101 83 0 0.0 1.0 0.00 1.26 1.26 89 1017.7
20260905021534 83 0 0.0 3.0 0.00 1.26 1.26 90 1017.6
20260905020034 82 0 0.0 0.0 0.00 1.26 1.26 91 1017.9
20260905014537 82 0 0.0 0.0 0.00 1.26 1.26 92 1017.7
20260905013033 81 0 0.0 0.0 0.00 1.26 1.26 91 1017.5
20260905011534 82 0 0.0 1.0 0.00 1.26 1.26 91 1017.5
20260905010035 82 0 0.0 0.0 0.00 1.26 1.26 91 1017.2
20260905004534 82 0 0.0 1.0 0.00 1.26 1.26 91 1017.2
20260905003031 82 0 0.0 0.0 0.00 1.26 1.26 90 1017.0
20260905001533 82 0 0.0 0.0 0.00 1.26 1.26 90 1016.6
20260905000034 82 0 0.0 0.0 0.00 1.26 1.26 89 1016.4
20260904234537 83 0 0.0 0.0 0.00 1.26 1.26 88 1016.2
20260904233033 83 0 0.0 0.0 0.00 1.26 1.26 87 1016.1
20260904231531 84 0 0.0 0.0 0.00 1.26 1.26 86 1016.3
20260904230033 84 0 0.0 1.0 0.00 1.26 1.26 86 1016.1
20260904224532 85 0 0.0 1.0 0.00 1.26 1.26 84 1016.3
20260904223034 85 0 0.0 0.0 0.00 1.26 1.26 83 1016.3
20260904221535 85 0 0.0 1.0 0.00 1.26 1.26 83 1016.6
20260904220058 85 0 0.0 1.0 0.00 1.26 1.26 82 1016.8
20260904214531 84 0 0.0 1.0 0.00 1.26 1.26 84 1016.8
20260904213035 84 0 0.0 1.0 0.00 1.26 1.26 83 1016.9
20260904211543 84 0 0.0 0.0 0.00 1.26 1.26 83 1016.9
20260904210037 83 0 0.0 1.0 0.00 1.26 1.26 83 1017.0
20260904204544 83 317 1.0 3.0 0.00 1.26 1.26 83 1017.0
20260904203042 83 221 0.0 3.0 0.00 1.26 1.26 85 1017.0
20260904201535 83 0 0.0 4.0 0.00 1.26 1.26 86 1017.1
20260904200037 83 283 0.0 3.0 0.00 1.26 1.26 84 1017.5
20260904194547 83 0 1.0 6.0 0.00 1.26 1.26 84 1017.9
20260904193039 84 0 1.0 9.0 0.00 1.26 1.26 82 1018.1
20260904191541 84 252 1.0 4.0 0.00 1.26 1.26 82 1018.0
20260904190035 84 264 0.0 8.0 0.00 1.26 1.26 83 1017.9
20260904184535 84 226 2.0 6.0 0.00 1.26 1.26 82 1018.0
20260904183038 84 262 2.0 8.0 0.00 1.26 1.26 84 1018.1
20260904181533 86 219 4.0 9.0 0.00 1.26 1.26 82 1018.2
20260904180034 88 249 3.0 7.0 0.00 1.26 1.26 81 1018.3
20260904174558 88 242 1.0 4.0 0.00 1.26 1.26 83 1017.9
20260904173037 89 212 2.0 5.0 0.00 1.26 1.26 82 1018.3
20260904171533 89 142 2.0 5.0 0.00 1.26 1.26 86 1018.4
20260904170035 86 123 1.0 6.0 0.00 1.26 1.26 95 1018.4
20260904164534 84 0 3.0 6.0 0.00 1.26 1.26 96 1018.6
20260904163041 84 123 1.0 5.0 0.00 1.26 1.26 96 1018.7
20260904161537 84 131 2.0 4.0 0.00 1.26 1.26 96 1018.7
20260904160036 84 0 0.0 3.0 0.00 1.26 1.26 98 1018.9
20260904154534 83 0 0.0 3.0 0.00 1.26 1.26 99 1018.7
20260904153044 81 220 0.0 3.0 0.00 1.26 1.26 99 1018.7
20260904151536 81 226 0.0 1.0 0.00 1.26 1.26 99 1018.5
20260904150042 80 0 0.0 1.0 0.10 1.26 1.26 99 1018.5
20260904144535 79 0 0.0 1.0 0.10 1.26 1.26 99 1018.3
20260904143037 78 0 0.0 5.0 0.10 1.26 1.26 99 1018.2
20260904141532 78 221 0.0 5.0 0.10 1.25 1.25 98 1018.3
20260904140040 79 179 1.0 7.0 0.01 1.16 1.16 98 1018.5
20260904134537 81 245 0.0 2.0 0.09 1.16 1.16 99 1018.4
20260904133032 81 0 0.0 2.0 0.64 1.16 1.16 99 1018.1
20260904131535 80 262 0.0 1.0 1.00 1.15 1.15 99 1017.9
20260904130033 77 262 0.0 2.0 1.02 1.15 1.15 99 1017.6
20260904124532 75 259 0.0 6.0 0.91 1.04 1.04 97 1018.1
20260904123043 76 181 6.0 15.0 0.36 0.49 0.49 95 1018.4
20260904121533 79 247 8.0 18.0 0.03 0.15 0.15 91 1017.9
20260904120039 81 211 0.0 4.0 0.13 0.13 0.13 93 1017.7
20260904114534 79 0 0.0 0.0 0.13 0.13 0.13 93 1017.4
20260904113047 79 0 0.0 0.0 0.13 0.13 0.13 92 1017.2
20260904111534 79 150 2.0 16.0 0.12 0.12 0.12 89 1017.2